Location: Nitra
(0.0000°N, 18.0833°E)
Time: 16:55:46
(UTC+02:00)

Courier 1B - Visible Passes

Search period start: 30 March 2023 00:00
Search period end: 09 April 2023 00:00
Orbit: 962 x 1209 km, 28.3° (Epoch: 30 March)

Date Brightness Start Highest point End Pass type
(mag) Time Alt. Az. Time Alt. Az. Time Alt. Az.
30 Mar 9.5 19:47:59 10° N 19:51:16 14° NNE 19:54:26 10° NE visible
30 Mar 9.6 21:39:37 10° NW 21:41:21 18° NW 21:41:21 18° NW visible
31 Mar 8.6 20:46:05 10° NW 20:51:09 31° NNE 20:51:09 31° NNE visible
01 Apr 8.9 19:52:38 10° NNW 19:58:09 24° NNE 20:00:58 19° ENE visible
01 Apr 9.5 21:45:39 10° WNW 21:47:53 22° NW 21:47:53 22° NW visible
02 Apr 7.9 20:51:49 10° NW 20:57:45 55° N 20:57:45 55° N visible
03 Apr 8.2 19:58:05 10° NW 20:04:47 43° NNE 20:07:39 29° ENE visible
03 Apr 9.6 21:52:16 10° WNW 21:54:34 22° W 21:54:34 22° W visible
04 Apr 9.9 05:40:02 10° S 05:41:54 11° SSE 05:43:49 10° SE visible
04 Apr 8.7 19:04:27 10° NNW 19:10:49 32° NNE 19:16:51 10° E visible
04 Apr 7.7 20:58:04 10° WNW 21:04:28 70° WSW 21:04:28 70° WSW visible
05 Apr 7.6 20:04:02 10° NW 20:11:16 79° NNE 20:14:23 35° ESE visible
05 Apr 9.9 21:59:34 10° W 22:01:19 17° WSW 22:01:19 17° WSW visible
06 Apr 9.6 05:44:05 10° SSW 05:48:47 19° SSE 05:53:38 10° ESE visible
06 Apr 8.0 19:10:07 10° NW 19:17:22 57° NNE 19:24:10 10° ESE visible
06 Apr 8.5 21:04:57 10° W 21:11:14 41° SW 21:11:14 41° SW visible
07 Apr 9.7 04:52:01 11° S 04:54:44 14° SSE 04:57:59 10° SE visible
07 Apr 8.0 20:10:32 10° WNW 20:17:41 59° SSW 20:21:10 30° SE visible
07 Apr 10.2 22:07:53 10° WSW 22:08:05 11° WSW 22:08:05 11° WSW visible
08 Apr 8.9 05:49:25 10° SSW 05:55:23 34° SSE 06:01:40 10° E visible
08 Apr 7.9 19:16:18 10° WNW 19:23:47 82° SSW 19:30:48 10° ESE visible
08 Apr 9.2 21:12:36 10° WSW 21:17:59 24° SSW 21:17:59 24° SSW visible
